FW3224 Weather Reports


time (UTC)temp
F
wind
direction
speed
knots
gust
knots
rain 1hr
in
rain 24hr
in
rain mn
in
humidity
%
barometer
mb
20260906085042 60 88 0.9 5.2 0.00 0.00 0.00 78 1019.5
20260906084542 60 89 0.9 3.5 0.00 0.00 0.00 77 1019.4
20260906084041 60 111 0.9 3.5 0.00 0.00 0.00 76 1019.3
20260906083539 61 85 0.9 3.5 0.00 0.00 0.00 75 1019.2
20260906083042 61 78 0.9 3.5 0.00 0.00 0.00 75 1019.1
20260906082537 61 103 0.0 3.5 0.00 0.00 0.00 74 1019.0
20260906082040 61 78 0.9 2.6 0.00 0.00 0.00 74 1019.0
20260906081535 61 81 0.9 2.6 0.00 0.00 0.00 73 1018.8
20260906081034 61 99 0.9 5.2 0.00 0.00 0.00 73 1018.8
20260906080533 61 100 1.7 5.2 0.00 0.00 0.00 72 1018.6
20260906080034 62 101 0.0 3.5 0.00 0.00 0.00 72 1018.6
20260906075531 62 82 0.9 3.5 0.00 0.00 0.00 71 1018.5
20260906075031 62 82 0.9 3.5 0.00 0.00 0.00 71 1018.3
20260906074530 62 81 0.9 7.8 0.00 0.00 0.00 70 1018.3
20260906074033 63 101 1.7 7.8 0.00 0.00 0.00 69 1018.2
20260906073529 63 111 1.7 7.8 0.00 0.00 0.00 69 1018.2
20260906073031 63 96 1.7 5.2 0.00 0.00 0.00 68 1018.1
20260906072527 63 78 1.7 7.0 0.00 0.00 0.00 67 1018.1
20260906072027 64 101 1.7 8.7 0.00 0.00 0.00 66 1017.9
20260906071525 64 101 2.6 8.7 0.00 0.00 0.00 64 1017.9
20260906071027 64 63 1.7 7.0 0.00 0.00 0.00 64 1017.7
20260906070523 64 88 0.9 7.8 0.00 0.00 0.00 63 1017.7
20260906070023 65 40 1.7 7.8 0.00 0.00 0.00 62 1017.6
20260906065524 65 101 2.6 8.7 0.00 0.00 0.00 62 1017.4
20260906065022 65 80 2.6 8.7 0.00 0.00 0.00 62 1017.3
20260906064521 65 76 1.7 9.6 0.00 0.00 0.00 63 1017.2
20260906064026 65 182 3.5 9.6 0.00 0.00 0.00 63 1017.2
20260906063523 66 100 2.6 7.8 0.00 0.00 0.00 62 1017.2
20260906063019 66 89 1.7 10.4 0.00 0.00 0.00 60 1017.0
20260906062518 66 100 2.6 10.4 0.00 0.00 0.00 59 1017.0
20260906062018 66 82 2.6 10.4 0.00 0.00 0.00 59 1017.0
20260906061517 66 80 3.5 10.4 0.00 0.00 0.00 57 1016.9
20260906061016 66 77 2.6 9.6 0.00 0.00 0.00 57 1016.9
20260906060517 67 90 1.7 8.7 0.00 0.00 0.00 56 1016.8
20260906060025 67 84 2.6 7.8 0.00 0.00 0.00 56 1016.8
20260906055516 67 72 3.5 7.8 0.00 0.00 0.00 56 1016.8
20260906055015 67 67 1.7 6.1 0.00 0.00 0.00 54 1016.7
20260906054528 67 117 1.7 8.7 0.00 0.00 0.00 57 1016.7
20260906054015 67 108 2.6 9.6 0.00 0.00 0.00 55 1016.7
20260906053613 67 86 1.7 9.6 0.00 0.00 0.00 55 1016.7
20260906053014 67 90 2.6 13.0 0.00 0.00 0.00 54 1016.6
20260906052514 67 360 3.5 13.0 0.00 0.00 0.00 54 1016.5
20260906052016 67 88 3.5 11.3 0.00 0.00 0.00 55 1016.6
20260906051513 67 111 3.5 11.3 0.00 0.00 0.00 53 1016.5
20260906051012 67 84 4.3 11.3 0.00 0.00 0.00 52 1016.5
20260906050512 67 163 4.3 8.7 0.00 0.00 0.00 54 1016.5
20260906050011 67 129 1.7 8.7 0.00 0.00 0.00 56 1016.5
20260906045511 67 78 3.5 13.0 0.00 0.00 0.00 55 1016.4
20260906045012 67 36 3.5 15.6 0.00 0.00 0.00 53 1016.2
20260906044512 68 85 4.3 13.0 0.00 0.00 0.00 53 1016.1
20260906044011 68 98 1.7 13.0 0.00 0.00 0.00 53 1016.2
20260906043510 68 78 4.3 14.8 0.00 0.00 0.00 50 1016.1
20260906043015 68 94 1.7 14.8 0.00 0.00 0.00 51 1016.1
20260906042509 68 73 3.5 12.2 0.00 0.00 0.00 52 1016.0
20260906042010 68 83 5.2 12.2 0.00 0.00 0.00 50 1016.1
20260906041509 69 65 3.5 9.6 0.00 0.00 0.00 49 1016.1
20260906041009 69 86 3.5 11.3 0.00 0.00 0.00 49 1016.0
20260906040509 69 94 3.5 11.3 0.00 0.00 0.00 48 1016.0
20260906040020 69 85 3.5 10.4 0.00 0.00 0.00 48 1016.0
20260906035508 69 76 4.3 10.4 0.00 0.00 0.00 47 1016.0
20260906035011 69 78 1.7 9.6 0.00 0.00 0.00 47 1016.0
20260906034514 69 70 3.5 12.2 0.00 0.00 0.00 47 1015.9
20260906034008 70 91 4.3 12.2 0.00 0.00 0.00 45 1015.9
20260906033508 70 100 4.3 10.4 0.00 0.00 0.00 45 1015.9
20260906033028 70 64 4.3 7.8 0.00 0.00 0.00 46 1015.9
20260906032508 70 113 1.7 9.6 0.00 0.00 0.00 46 1015.8
20260906032008 70 59 2.6 9.6 0.00 0.00 0.00 45 1015.8
20260906031509 70 51 1.7 8.7 0.00 0.00 0.00 45 1015.8
20260906031007 70 136 2.6 8.7 0.00 0.00 0.00 45 1015.6
20260906030507 70 64 2.6 7.8 0.00 0.00 0.00 44 1015.8
20260906030007 71 51 2.6 11.3 0.00 0.00 0.00 45 1015.7
20260906025506 71 115 2.6 11.3 0.00 0.00 0.00 42 1015.7
20260906025006 71 80 2.6 7.0 0.00 0.00 0.00 42 1015.7
20260906024506 71 92 1.7 7.8 0.00 0.00 0.00 40 1015.8
20260906024005 71 77 3.5 12.2 0.00 0.00 0.00 40 1015.9
20260906023505 71 95 3.5 12.2 0.00 0.00 0.00 42 1015.8
20260906023004 71 94 2.6 8.7 0.00 0.00 0.00 39 1015.9
20260906022504 72 23 2.6 7.8 0.00 0.00 0.00 41 1015.9
20260906022004 71 230 0.9 8.7 0.00 0.00 0.00 42 1015.8
20260906021504 70 86 2.6 8.7 0.00 0.00 0.00 42 1015.9
20260906021003 70 67 1.7 7.0 0.00 0.00 0.00 42 1015.9
20260906020502 70 130 0.9 7.8 0.00 0.00 0.00 42 1016.0
20260906020000 70 209 3.5 11.3 0.00 0.00 0.00 41 1016.0
20260906015600 70 186 5.2 11.3 0.00 0.00 0.00 41 1016.2
20260906015103 70 194 4.3 10.4 0.00 0.00 0.00 41 1016.2
20260906014600 70 113 1.7 8.7 0.00 0.00 0.00 42 1016.0
20260906014059 69 149 3.5 9.6 0.00 0.00 0.00 42 1016.1
20260906013602 69 142 3.5 12.2 0.00 0.00 0.00 41 1016.0
20260906013104 69 147 3.5 11.3 0.00 0.00 0.00 41 1016.3
20260906012557 69 149 2.6 8.7 0.00 0.00 0.00 41 1016.3
20260906012057 69 132 4.3 9.6 0.00 0.00 0.00 41 1016.2
20260906011557 69 169 2.6 11.3 0.00 0.00 0.00 41 1016.2
20260906011055 69 179 4.3 10.4 0.00 0.00 0.00 42 1016.2
20260906010555 69 92 3.5 8.7 0.00 0.00 0.00 42 1016.1
20260906010054 69 146 2.6 13.0 0.00 0.00 0.00 43 1016.1
20260906005554 69 192 6.1 13.0 0.00 0.00 0.00 42 1016.1
20260906005054 69 210 2.6 7.8 0.00 0.00 0.00 43 1016.1
20260906004554 69 211 2.6 10.4 0.00 0.00 0.00 43 1016.0
20260906004053 68 221 1.7 10.4 0.00 0.00 0.00 44 1016.0
20260906003553 68 261 3.5 7.8 0.00 0.00 0.00 44 1015.9
20260906003054 68 257 3.5 12.2 0.00 0.00 0.00 44 1016.1
20260906002556 68 269 3.5 12.2 0.00 0.00 0.00 46 1016.0
20260906002052 67 225 3.5 8.7 0.00 0.00 0.00 45 1015.8
20260906001551 67 207 3.5 8.7 0.00 0.00 0.00 44 1015.9
20260906001051 67 219 3.5 8.7 0.00 0.00 0.00 44 1016.0
20260906000553 67 241 3.5 11.3 0.00 0.00 0.00 46 1015.9
20260906000051 67 259 3.5 8.7 0.00 0.00 0.00 46 1015.8
20260905235550 66 242 2.6 8.7 0.00 0.00 0.00 45 1015.9
20260905235050 66 243 2.6 11.3 0.00 0.00 0.00 46 1015.7
20260905234550 66 238 3.5 10.4 0.00 0.00 0.00 45 1015.8
20260905234050 66 216 3.5 7.0 0.00 0.00 0.00 47 1015.8
20260905233549 65 211 4.3 8.7 0.00 0.00 0.00 46 1015.7
20260905233057 65 229 3.5 14.8 0.00 0.00 0.00 46 1015.7
20260905232548 66 186 6.1 13.9 0.00 0.00 0.00 45 1016.0
20260905232048 66 247 1.7 10.4 0.00 0.00 0.00 49 1015.8
20260905231547 65 240 3.5 10.4 0.00 0.00 0.00 47 1015.6
20260905231046 65 332 2.6 9.6 0.00 0.00 0.00 49 1015.6
20260905230546 64 248 4.3 13.0 0.00 0.00 0.00 48 1015.5
20260905230046 64 270 5.2 13.0 0.00 0.00 0.00 47 1015.5
20260905225545 64 250 6.1 12.2 0.00 0.00 0.00 48 1015.4
20260905225045 64 235 3.5 8.7 0.00 0.00 0.00 49 1015.4
20260905224609 64 221 2.6 10.4 0.00 0.00 0.00 50 1015.4
20260905224043 64 221 5.2 11.3 0.00 0.00 0.00 50 1015.3
20260905223544 64 245 4.3 11.3 0.00 0.00 0.00 51 1015.3
20260905223046 63 259 4.3 10.4 0.00 0.00 0.00 50 1015.3
20260905222545 63 276 4.3 10.4 0.00 0.00 0.00 49 1015.2
20260905222046 63 212 3.5 12.2 0.00 0.00 0.00 51 1015.2
20260905221542 63 261 7.0 12.2 0.00 0.00 0.00 49 1015.1
20260905221041 63 231 6.1 11.3 0.00 0.00 0.00 49 1015.1
20260905220541 63 241 3.5 11.3 0.00 0.00 0.00 50 1015.0
20260905220041 63 225 6.1 12.2 0.00 0.00 0.00 50 1014.9
20260905215541 62 252 6.1 13.0 0.00 0.00 0.00 50 1014.9
20260905215039 62 254 6.1 13.0 0.00 0.00 0.00 50 1015.1
20260905214546 62 306 3.5 12.2 0.00 0.00 0.00 50 1014.8
20260905214038 62 251 4.3 13.9 0.00 0.00 0.00 50 1014.8
20260905213540 62 252 4.3 13.9 0.00 0.00 0.00 50 1014.5
20260905213038 62 259 4.3 13.0 0.00 0.00 0.00 50 1014.4
20260905212537 62 254 5.2 13.0 0.00 0.00 0.00 49 1014.4
20260905212039 62 244 4.3 9.6 0.00 0.00 0.00 49 1014.6
20260905211543 62 290 3.5 10.4 0.00 0.00 0.00 50 1014.6
20260905211034 62 239 4.3 10.4 0.00 0.00 0.00 49 1014.5
20260905210533 62 287 2.6 12.2 0.00 0.00 0.00 49 1014.4
20260905210041 62 259 5.2 12.2 0.00 0.00 0.00 48 1014.3
20260905205533 62 234 6.1 10.4 0.00 0.00 0.00 49 1014.0
20260905205033 62 237 4.3 11.3 0.00 0.00 0.00 49 1013.8
20260905204530 62 240 6.1 13.0 0.00 0.00 0.00 48 1013.7
20260905204029 62 279 5.2 9.6 0.00 0.00 0.00 49 1013.7
20260905203528 62 254 3.5 8.7 0.00 0.00 0.00 49 1013.9
20260905203027 62 244 2.6 8.7 0.00 0.00 0.00 49 1013.6
20260905202527 62 235 5.2 8.7 0.00 0.00 0.00 50 1013.4
20260905202025 62 261 4.3 8.7 0.00 0.00 0.00 50 1013.5
20260905201523 62 250 3.5 8.7 0.00 0.00 0.00 49 1013.5
20260905201021 63 235 4.3 9.6 0.00 0.00 0.00 47 1013.3
20260905200527 63 229 3.5 12.2 0.00 0.00 0.00 45 1013.1
20260905200026 63 240 5.2 13.0 0.00 0.00 0.00 44 1012.9
20260905195518 64 273 4.3 13.0 0.00 0.00 0.00 43 1012.9
20260905195018 64 227 4.3 14.8 0.00 0.00 0.00 43 1013.1
20260905194519 64 219 4.3 11.3 0.00 0.00 0.00 43 1013.1
20260905194016 64 261 6.1 13.0 0.00 0.00 0.00 43 1013.0
20260905193514 64 261 6.1 13.0 0.00 0.00 0.00 43 1012.7
20260905193014 64 253 4.3 14.8 0.00 0.00 0.00 44 1012.5
20260905192512 65 246 6.1 21.7 0.00 0.00 0.00 43 1012.4
20260905192011 64 281 7.0 14.8 0.00 0.00 0.00 47 1012.0
20260905191509 64 269 4.3 15.6 0.00 0.00 0.00 48 1011.7
20260905191008 65 256 6.1 15.6 0.00 0.00 0.00 47 1011.4
20260905190507 65 246 7.8 13.9 0.00 0.00 0.00 46 1011.2
20260905190006 65 298 6.1 15.6 0.00 0.00 0.00 45 1011.1
20260905185504 66 213 7.8 20.0 0.00 0.00 0.00 42 1011.2
20260905185003 66 273 8.7 20.0 0.00 0.00 0.00 42 1010.9
20260905184506 66 240 7.0 15.6 0.00 0.00 0.00 42 1011.0
20260905184002 66 233 7.0 14.8 0.00 0.00 0.00 44 1011.0
20260905183503 66 288 7.0 13.0 0.00 0.00 0.00 48 1010.8
20260905183101 66 257 5.2 9.6 0.00 0.00 0.00 51 1010.7
20260905182559 66 245 5.2 14.8 0.00 0.00 0.00 50 1010.7
20260905182058 66 284 6.1 14.8 0.00 0.00 0.00 49 1010.8
20260905181557 66 238 4.3 11.3 0.00 0.00 0.00 48 1010.9
20260905181055 67 201 4.3 11.3 0.00 0.00 0.00 48 1010.9
20260905180556 67 207 4.3 14.8 0.00 0.00 0.00 48 1011.1
20260905175552 68 317 3.5 8.7 0.00 0.00 0.00 48 1011.3
20260905175054 68 242 3.5 9.6 0.00 0.00 0.00 49 1011.1
20260905174549 68 249 2.6 8.7 0.00 0.00 0.00 49 1011.1
20260905174049 68 257 3.5 9.6 0.00 0.00 0.00 49 1011.1
20260905173548 68 242 2.6 15.6 0.00 0.00 0.00 49 1011.0
20260905173149 69 252 4.3 15.6 0.00 0.00 0.00 49 1010.8
20260905172545 69 204 6.1 14.8 0.00 0.00 0.00 50 1010.7
20260905172045 69 261 6.1 20.0 0.00 0.00 0.00 49 1010.5
20260905171545 69 245 8.7 22.6 0.00 0.00 0.00 49 1010.5
20260905171042 69 242 8.7 22.6 0.00 0.00 0.00 51 1010.5
20260905170541 69 243 4.3 9.6 0.00 0.00 0.00 55 1010.4
20260905170044 70 236 4.3 14.8 0.00 0.00 0.00 55 1010.4
20260905165539 70 234 7.0 14.8 0.00 0.00 0.00 54 1010.3
20260905165039 70 227 4.3 13.9 0.00 0.00 0.00 55 1010.2
20260905164537 70 189 5.2 13.9 0.00 0.00 0.00 56 1010.1
20260905164037 70 195 4.3 13.0 0.00 0.00 0.00 56 1010.1
20260905163538 70 187 2.6 9.6 0.00 0.00 0.00 57 1010.0
20260905163035 70 188 2.6 9.6 0.00 0.00 0.00 56 1010.0
20260905162534 70 245 4.3 12.2 0.00 0.00 0.00 56 1009.9
20260905162033 70 220 3.5 12.2 0.00 0.00 0.00 57 1009.9
20260905161534 70 236 4.3 11.3 0.00 0.00 0.00 56 1009.9
20260905161031 70 207 5.2 11.3 0.00 0.00 0.00 56 1009.8
20260905160530 70 227 5.2 9.6 0.00 0.00 0.00 57 1009.8
20260905160028 70 224 4.3 9.6 0.00 0.00 0.00 57 1009.6
20260905155530 71 251 4.3 10.4 0.00 0.00 0.00 56 1009.5
20260905155026 71 267 5.2 10.4 0.00 0.00 0.00 56 1009.4
20260905154526 71 227 3.5 11.3 0.00 0.00 0.00 56 1009.4
20260905154032 71 238 4.3 11.3 0.00 0.00 0.00 56 1009.4
20260905153525 71 207 3.5 10.4 0.00 0.00 0.00 56 1009.3
20260905153025 71 279 5.2 10.4 0.00 0.00 0.00 56 1009.2
20260905152525 71 288 3.5 10.4 0.00 0.00 0.00 56 1009.2
20260905152022 71 238 4.3 10.4 0.00 0.00 0.00 56 1009.2
20260905151522 71 277 5.2 9.6 0.00 0.00 0.00 56 1009.2
20260905151020 71 288 4.3 7.8 0.00 0.00 0.00 57 1009.3
20260905150523 71 244 4.3 12.2 0.00 0.00 0.00 56 1009.2
20260905150020 71 257 5.2 12.2 0.00 0.00 0.00 56 1009.3
20260905145519 71 281 7.0 13.0 0.00 0.00 0.00 56 1009.2
20260905145019 71 266 3.5 12.2 0.00 0.00 0.00 57 1009.2
20260905144523 71 237 4.3 12.2 0.00 0.00 0.00 57 1009.2
20260905144017 71 254 3.5 6.1 0.00 0.00 0.00 56 1009.1
20260905143516 72 231 1.7 7.8 0.00 0.00 0.00 55 1009.2
20260905143018 72 246 3.5 8.7 0.00 0.00 0.00 55 1009.1
20260905142515 72 241 4.3 8.7 0.00 0.00 0.00 55 1009.1
20260905142014 72 298 3.5 8.7 0.00 0.00 0.00 55 1008.9
20260905141512 72 271 2.6 7.0 0.00 0.00 0.00 56 1008.9
20260905141013 72 275 3.5 11.3 0.00 0.00 0.00 56 1008.7
20260905140513 71 290 6.1 11.3 0.00 0.00 0.00 56 1008.7
20260905140009 71 285 4.3 8.7 0.00 0.00 0.00 57 1008.6
20260905135509 71 279 4.3 8.7 0.00 0.00 0.00 58 1008.6
20260905135008 71 288 4.3 8.7 0.00 0.00 0.00 59 1008.5
20260905134508 71 281 3.5 8.7 0.00 0.00 0.00 59 1008.5
20260905134008 71 271 1.7 7.0 0.00 0.00 0.00 59 1008.4
20260905133508 71 297 2.6 7.0 0.00 0.00 0.00 58 1008.4
20260905133008 72 277 2.6 7.8 0.00 0.00 0.00 58 1008.5
20260905132508 72 281 4.3 8.7 0.00 0.00 0.00 57 1008.3
20260905132008 72 281 2.6 8.7 0.00 0.00 0.00 57 1008.3
20260905131508 72 259 2.6 11.3 0.00 0.00 0.00 57 1008.6
20260905131010 72 293 5.2 11.3 0.00 0.00 0.00 57 1008.6
20260905130507 72 275 2.6 8.7 0.00 0.00 0.00 57 1008.6
20260905130007 72 311 2.6 7.0 0.00 0.00 0.00 57 1008.5
20260905125507 72 287 1.7 11.3 0.00 0.00 0.00 57 1008.4
20260905125007 72 300 5.2 11.3 0.00 0.00 0.00 57 1008.4
20260905124506 72 289 5.2 10.4 0.00 0.00 0.00 57 1008.4
20260905124007 72 280 6.1 13.0 0.00 0.00 0.00 57 1008.4
20260905123507 72 238 5.2 12.2 0.00 0.00 0.00 57 1008.4
20260905123006 72 270 6.1 13.0 0.00 0.00 0.00 58 1008.4
20260905122507 72 257 5.2 13.0 0.00 0.00 0.00 58 1008.4
20260905122005 72 305 5.2 15.6 0.00 0.00 0.00 57 1008.4
20260905121504 72 229 7.0 13.0 0.00 0.00 0.00 57 1008.5
20260905121004 72 226 7.0 13.0 0.00 0.00 0.00 57 1008.4
20260905120508 72 292 7.0 13.0 0.00 0.00 0.00 58 1008.4
20260905120004 73 282 6.1 13.0 0.00 0.00 0.00 57 1008.4
20260905115504 73 257 7.0 13.9 0.00 0.00 0.00 57 1008.4
20260905115007 73 284 5.2 13.9 0.00 0.00 0.00 57 1008.3
20260905114504 73 282 5.2 16.5 0.00 0.00 0.00 57 1008.4
20260905114004 73 275 7.8 16.5 0.00 0.00 0.00 57 1008.3
20260905113504 73 257 7.0 15.6 0.00 0.00 0.00 56 1008.4
20260905113004 73 257 7.0 13.9 0.00 0.00 0.00 56 1008.4
20260905112503 73 264 7.8 17.4 0.00 0.00 0.00 56 1008.3
20260905112004 74 252 7.8 18.2 0.00 0.00 0.00 55 1008.6
20260905111505 74 281 11.3 18.2 0.00 0.00 0.00 54 1008.6
20260905111003 74 284 8.7 16.5 0.00 0.00 0.00 54 1008.6
20260905110502 74 288 8.7 17.4 0.00 0.00 0.00 53 1008.8
20260905110002 75 274 10.4 20.0 0.00 0.00 0.00 52 1008.7
20260905105502 75 295 10.4 20.0 0.00 0.00 0.00 52 1008.7
20260905105002 75 240 8.7 22.6 0.00 0.00 0.00 52 1008.7
20260905104501 75 280 10.4 22.6 0.00 0.00 0.00 52 1008.8
20260905104004 74 279 8.7 19.1 0.00 0.00 0.00 53 1008.8
20260905103505 75 274 8.7 22.6 0.00 0.00 0.00 53 1008.9
20260905103006 75 264 8.7 22.6 0.00 0.00 0.00 53 1008.8
20260905102501 75 263 9.6 17.4 0.00 0.00 0.00 52 1008.8
20260905102001 75 249 7.0 17.4 0.00 0.00 0.00 53 1008.9
20260905101607 75 254 7.8 19.1 0.00 0.00 0.00 53 1009.0
20260905101502 75 236 8.7 19.1 0.00 0.00 0.00 52 1009.0
20260905101100 74 270 12.2 19.1 0.00 0.00 0.00 53 1009.1
20260905100600 75 262 9.6 24.3 0.00 0.00 0.00 54 1009.6
20260905100201 75 287 13.9 24.3 0.00 0.00 0.00 53 1010.1
20260905095559 75 248 8.7 21.7 0.00 0.00 0.00 52 1010.2
20260905095059 75 289 9.6 21.7 0.00 0.00 0.00 52 1010.2
20260905094559 75 238 11.3 21.7 0.00 0.00 0.00 54 1010.5
20260905094058 74 289 6.1 14.8 0.00 0.00 0.00 56 1010.6
20260905093558 74 263 7.8 14.8 0.00 0.00 0.00 56 1010.6
20260905093059 74 285 7.8 14.8 0.00 0.00 0.00 56 1010.8
20260905092601 74 237 7.0 15.6 0.00 0.00 0.00 57 1010.9
20260905092058 74 293 8.7 15.6 0.00 0.00 0.00 57 1010.7
20260905091606 74 227 7.8 14.8 0.00 0.00 0.00 58 1010.8
20260905091100 74 267 6.1 20.9 0.00 0.00 0.00 58 1010.5
20260905090601 74 287 7.0 22.6 0.00 0.00 0.00 58 1010.4
20260905090057 75 256 8.7 22.6 0.00 0.00 0.00 57 1010.6
20260905085557 74 252 9.6 16.5 0.00 0.00 0.00 56 1010.4